Location: ??????
(42.0089°N, 44.3281°E)
Time: 11:21:39
(UTC+00:00)

Cosmos 2251 Rocket - Pass Details

Date: 30 May 2022
Orbit: 764 x 791 km, 74.0° (Epoch: 01 July)

Event Time Altitude Azimuth Distance (km) Brightness Sun altitude
Rises 21:28:36 0° 354° (N) 3,250 8.0 -25.8°
Reaches altitude 10° 21:31:49 10° 13° (NNE) 2,323 7.0 -25.7°
Maximum altitude 21:35:17 17° 55° (NE) 1,859 5.9 -25.6°
Drops below altitude 10° 21:38:45 10° 96° (E) 2,326 6.0 -25.5°
Enters shadow 21:40:36 - 109° (ESE) 2,835 6.3 -25.4°
